[[{"header":{"parameterUnit":"m.s-1","parameterCategory":2,"la1":30.2991,"la2":30.254,"lo1":-89.0895,"lo2":-89.0444,"dy":0.0017,"dx":0.0017,"nx":28,"ny":28,"refTime":"2023-09-23T09:00:00:Z","depth":"0","parameterNumber":2,"parameterNumberName":"U-component_of_CURRENTS"},"data":[0,0,0,0,0,0,0,0,0,0,0,0,0,0,0,0,0,0,0,0,0,0,0,0,0,0,0,0,0,0,0,0,0,0,0,0,0,0,0,0,0,0,0,0,0,0,0,0,0,0,0,0,0,0,0,0,0,0,-0.3101,-0.3101,0,-0.3094,-0.3094,-0.3093,-0.3018,-0.3017,-0.3015,-0.3014,-0.2882,-0.288,-0.2878,0,0,0,0,0,0,0,0,0,0,0,0,0,-0.2976,-0.2979,-0.3101,-0.3101,-0.3102,-0.3094,-0.3094,-0.3093,-0.3018,-0.3017,-0.3015,-0.3013,-0.2883,-0.288,-0.2878,0,0,0,0,0,0,0,0,0,0,0,0,0,-0.3003,-0.298,-0.3101,-0.3066,-0.3063,-0.3094,-0.3094,-0.3093,-0.3019,-0.3016,-0.3014,-0.3012,-0.2884,-0.2881,-0.2877,-0.2904,0,0,-0.2868,-0.2867,0,0,0,0,0,0,0,0,-0.3001,-0.3007,-0.3071,-0.3069,-0.3066,-0.3058,-0.3002,-0.3025,-0.3019,-0.3032,-0.3014,-0.3011,-0.2934,-0.2926,-0.2926,-0.2898,-0.2892,-0.2868,-0.2866,-0.2864,-0.2863,0,0,0,0,0,0,0,-0.3,-0.3006,-0.3094,-0.3072,-0.3069,-0.3026,-0.3028,-0.3005,-0.299,-0.303,-0.3026,-0.3032,-0.293,-0.293,-0.2922,-0.289,-0.2868,-0.2865,-0.2863,-0.2862,-0.2898,-0.2901,0,0,0,0,0,0,-0.3016,-0.3006,-0.3095,-0.3094,-0.3032,-0.3031,-0.3032,-0.306,-0.2993,-0.2983,-0.3034,-0.3029,-0.2936,-0.2926,-0.2917,-0.2922,-0.2864,-0.2861,-0.286,-0.2896,-0.2899,-0.2902,0,0,0,0,0,0,-0.3014,-0.3025,-0.3095,-0.3051,-0.3057,-0.3036,-0.3067,-0.3061,-0.3052,-0.2998,-0.2984,-0.3031,-0.2934,-0.2922,-0.2899,-0.2916,-0.286,-0.2857,-0.2892,-0.2897,-0.29,-0.2945,0,0,0,0,0,0,-0.301,-0.3024,-0.3046,-0.3053,-0.3061,-0.3131,-0.307,-0.3062,-0.3061,-0.3054,-0.2991,-0.2977,-0.2931,-0.2904,-0.2896,-0.2911,-0.2855,-0.2889,-0.2894,-0.2899,-0.294,-0.295,-0.2959,0,0,0,0,0,-0.3006,-0.3056,-0.3048,-0.3058,-0.3093,-0.3133,-0.3134,-0.3106,-0.3064,-0.3083,-0.3028,-0.2978,-0.2933,-0.2904,-0.2893,-0.2908,-0.2886,-0.2893,-0.2899,-0.2935,-0.2948,-0.2959,0,0,0,0,0,0,-0.3013,-0.3053,-0.3044,-0.3103,-0.3122,-0.3122,-0.3138,-0.3114,-0.3089,-0.3067,-0.2999,-0.2983,-0.299,-0.2952,-0.2921,-0.2944,-0.2909,-0.2913,-0.294,-0.2952,-0.2961,-0.2904,-0.2852,0,0,0,0,0,-0.3028,-0.3072,-0.3098,-0.3142,-0.3157,-0.3145,-0.3153,-0.3138,-0.312,-0.3106,-0.3064,-0.3027,-0.3015,-0.2981,-0.2982,-0.2967,-0.2889,-0.2981,-0.2991,-0.2998,-0.2952,-0.283,-0.2821,-0.2923,-0.2923,-0.2923,0,0,-0.3037,-0.307,-0.3089,-0.3146,-0.3153,-0.3171,-0.3144,-0.3169,-0.3156,-0.3096,-0.307,-0.3072,-0.3031,-0.3033,-0.303,-0.2987,-0.295,-0.3007,-0.3012,-0.296,-0.2835,-0.2823,-0.2813,-0.2927,-0.2927,-0.2926,0,0,-0.3085,-0.3114,-0.3163,-0.3183,-0.3213,-0.3202,-0.3211,-0.322,-0.3198,-0.3191,-0.3156,-0.3139,-0.3125,-0.308,-0.3056,-0.3115,-0.303,-0.3158,-0.3113,-0.2998,-0.2985,-0.2973,-0.2932,-0.2915,-0.3129,-0.3129,-0.3129,0,-0.3083,-0.3139,-0.3182,-0.3226,-0.3211,-0.3214,-0.322,-0.3223,-0.3215,-0.3164,-0.3189,-0.3128,-0.3128,-0.3053,-0.3108,-0.3124,-0.3073,-0.3064,-0.3,-0.2986,-0.2972,-0.2932,-0.2912,-0.3132,-0.3131,-0.3131,-0.3131,0,-0.3166,-0.3185,-0.3215,-0.3249,-0.3261,-0.3268,-0.3268,-0.3258,-0.3227,-0.3194,-0.3147,-0.3147,-0.3075,-0.3125,-0.3137,-0.3065,-0.3073,-0.3047,-0.2949,-0.2963,-0.2923,-0.2902,-0.3136,-0.3135,-0.3134,-0.3133,0,0,-0.3169,-0.3247,-0.3245,-0.3205,-0.3247,-0.3231,-0.3235,-0.318,-0.3105,-0.3124,-0.3018,-0.3056,-0.3031,-0.3007,-0.3023,-0.2955,-0.2894,-0.2976,-0.2968,-0.2896,-0.2685,-0.2643,-0.2617,-0.2847,-0.2842,-0.2838,-0.2718,0,-0.3178,-0.321,-0.3266,-0.3218,-0.3188,-0.3184,-0.3157,-0.3113,-0.3081,-0.3005,-0.2969,-0.2917,-0.299,-0.2966,-0.2911,-0.2911,-0.283,-0.2931,-0.2712,-0.2706,-0.2632,-0.2586,-0.2476,-0.2353,-0.2697,-0.2693,-0.2691,0,-0.3203,-0.3192,-0.3168,-0.3088,-0.3078,-0.3072,-0.2943,-0.2932,-0.2861,-0.283,-0.2765,-0.2762,-0.2708,-0.2765,-0.266,-0.2726,-0.2699,-0.2688,-0.268,-0.2586,-0.2621,-0.2384,-0.23,-0.2296,-0.2658,-0.266,-0.2663,0,-0.3074,-0.309,-0.3028,-0.3016,-0.2977,-0.2938,-0.2914,-0.2857,-0.2798,-0.272,-0.2672,-0.259,-0.2564,-0.2491,-0.2534,-0.2576,-0.2415,-0.2444,-0.2358,-0.236,-0.2187,-0.2178,-0.2018,-0.2289,-0.229,-0.229,-0.229,0,-0.2997,-0.2942,-0.2959,-0.2901,-0.2776,-0.282,-0.2699,-0.2667,-0.2631,-0.254,-0.257,-0.2496,-0.2494,-0.244,-0.2447,-0.2348,-0.2318,-0.2313,-0.2287,-0.2216,-0.2212,-0.2137,-0.2188,-0.2285,-0.2286,-0.2287,-0.2288,0,-0.2854,-0.2892,-0.2781,-0.2728,-0.2709,-0.2615,-0.2586,-0.2506,-0.2513,-0.2415,-0.2392,-0.2398,-0.2335,-0.2329,-0.224,-0.223,-0.2097,-0.2103,-0.2072,-0.2042,-0.1955,-0.2014,-0.1806,-0.1757,-0.1958,-0.1956,-0.1954,0,-0.2796,-0.2728,-0.2616,-0.2547,-0.2531,-0.2444,-0.2386,-0.2406,-0.2365,-0.2345,-0.2289,-0.2249,-0.2184,-0.2073,-0.2019,-0.1933,-0.1975,-0.1802,-0.183,-0.1887,-0.1934,-0.1993,-0.1973,-0.1665,-0.166,-0.1657,-0.1654,0,-0.2614,-0.2576,-0.246,-0.232,-0.2252,-0.2175,-0.2143,-0.2109,-0.2143,-0.2111,-0.2076,-0.2041,-0.1959,-0.184,-0.1767,-0.1711,-0.1758,-0.1728,-0.1738,-0.1628,-0.1718,-0.1681,-0.189,-0.1624,-0.1627,-0.1629,-0.1631,-0.1632,-0.2463,-0.2319,-0.2176,-0.2032,-0.1975,-0.1924,-0.1843,-0.1878,-0.1826,-0.1793,-0.1858,-0.1775,-0.1713,-0.1586,-0.154,-0.1435,-0.1517,-0.1394,-0.145,-0.1498,-0.1454,-0.1639,-0.1376,-0.1378,-0.1379,-0.138,-0.1381,0,-0.2229,-0.2085,-0.1917,-0.1753,-0.1654,-0.1699,-0.1662,-0.1604,-0.1557,-0.1553,-0.1527,-0.1456,-0.1364,-0.1337,-0.1259,-0.119,-0.118,-0.1167,-0.1209,-0.1191,-0.1274,-0.1265,-0.1022,-0.1022,-0.1022,-0.1022,-0.1022,-0.1022,-0.2078,-0.1842,-0.172,-0.1463,-0.1399,-0.1258,-0.1227,-0.1209,-0.1181,-0.1103,-0.1066,-0.1031,-0.1111,-0.1236,-0.1174,-0.1108,-0.111,-0.1047,-0.1113,-0.1187,-0.1213,-0.1239,-0.1238,-0.0993,-0.0993,-0.0955,-0.0955,-0.0955]},{"header":{"parameterUnit":"m.s-1","parameterCategory":2,"la1":30.2991,"la2":30.254,"lo1":-89.0895,"lo2":-89.0444,"dy":0.0017,"dx":0.0017,"nx":28,"ny":28,"refTime":"2023-09-23T09:00:00:Z","depth":"0","parameterNumber":3,"parameterNumberName":"V-component_of_CURRENTS"},"data":[0,0,0,0,0,0,0,0,0,0,0,0,0,0,0,0,0,0,0,0,0,0,0,0,0,0,0,0,0,0,0,0,0,0,0,0,0,0,0,0,0,0,0,0,0,0,0,0,0,0,0,0,0,0,0,0,0,0,-0.0263,-0.0261,0,-0.0119,-0.0118,-0.0116,-0.0032,-0.0032,-0.0031,-0.0031,0.0125,0.0129,0.0133,0,0,0,0,0,0,0,0,0,0,0,0,0,-0.0429,-0.0427,-0.0263,-0.0261,-0.0259,-0.012,-0.0118,-0.0116,-0.0032,-0.0032,-0.0031,-0.0031,0.0124,0.0128,0.0133,0,0,0,0,0,0,0,0,0,0,0,0,0,-0.0329,-0.0426,-0.0263,-0.02,-0.0193,-0.012,-0.0118,-0.0115,-0.0032,-0.0032,-0.0031,-0.0031,0.0122,0.0128,0.0134,0.0156,0,0,0.0151,0.0153,0,0,0,0,0,0,0,0,-0.0335,-0.0323,-0.0211,-0.0205,-0.0196,-0.0093,-0.0119,-0.0024,-0.0032,-0.0094,-0.0031,-0.003,0.0054,0.0065,0.0089,0.0164,0.017,0.0151,0.0155,0.0157,0.0159,0,0,0,0,0,0,0,-0.0342,-0.0329,-0.0207,-0.021,-0.02,-0.0167,-0.0152,-0.01,-0.0026,-0.0089,-0.0082,-0.0065,0.0058,0.0084,0.0094,0.0173,0.0151,0.0156,0.016,0.0162,0.0264,0.0264,0,0,0,0,0,0,-0.0361,-0.0335,-0.0211,-0.0203,-0.0265,-0.0165,-0.0148,-0.0127,-0.0026,-0.001,-0.0066,-0.0062,0.0074,0.0087,0.01,0.0117,0.0157,0.0162,0.0166,0.0265,0.0264,0.0263,0,0,0,0,0,0,-0.0365,-0.0351,-0.0217,-0.0266,-0.0246,-0.0163,-0.0139,-0.0125,-0.0098,-0.0009,0.0007,-0.0055,0.0075,0.0092,0.0138,0.0125,0.0165,0.017,0.0266,0.0265,0.0264,0.0163,0,0,0,0,0,0,-0.037,-0.0353,-0.0351,-0.0267,-0.0244,-0.0185,-0.0139,-0.0122,-0.0088,-0.0082,0.0006,0.0021,0.0077,0.0129,0.0144,0.0133,0.0175,0.0267,0.0265,0.0264,0.0167,0.0158,0.0151,0,0,0,0,0,-0.0376,-0.0378,-0.0352,-0.0337,-0.0241,-0.0185,-0.0171,-0.011,-0.0089,-0.0083,-0.0025,0.0019,0.0132,0.0134,0.0151,0.0141,0.0267,0.0266,0.0264,0.017,0.016,0.0151,0,0,0,0,0,0,-0.0453,-0.0366,-0.0336,-0.0312,-0.0258,-0.0171,-0.0162,-0.0119,-0.0068,-0.0065,0.0016,0.0035,0.007,0.0118,0.0118,0.0166,0.0204,0.0206,0.0127,0.0118,0.011,0.0079,0.0179,0,0,0,0,0,-0.0469,-0.0445,-0.0361,-0.0346,-0.0322,-0.0245,-0.0217,-0.0174,-0.0114,-0.0091,-0.0028,0.0031,0.0077,0.0106,0.0157,0.0186,0.0235,0.0189,0.0181,0.0174,0.016,0.0224,0.0221,0.0258,0.0258,0.0258,0,0,-0.0496,-0.0445,-0.0433,-0.0361,-0.0315,-0.0292,-0.0227,-0.0192,-0.0176,-0.0083,-0.0051,0.0007,0.0078,0.0109,0.0129,0.0149,0.0189,0.0172,0.0166,0.0155,0.0222,0.0219,0.0216,0.0257,0.0258,0.0258,0,0,-0.0549,-0.0494,-0.0497,-0.0452,-0.0387,-0.0335,-0.033,-0.0248,-0.0217,-0.0174,-0.0112,-0.0069,0.0015,0.0056,0.0088,0.0065,0.0144,0.0086,0.0025,0.0088,0.0085,0.0083,0.0138,0.0142,0.0084,0.0083,0.0083,0,-0.0589,-0.0571,-0.0493,-0.0482,-0.0454,-0.0363,-0.0363,-0.0318,-0.0233,-0.0209,-0.0179,-0.0067,-0.0016,0.0023,0.0008,0.0046,0.0098,0.0055,0.0077,0.0076,0.0076,0.0133,0.0138,0.0078,0.0079,0.0079,0.008,0,-0.0637,-0.0622,-0.0622,-0.0574,-0.0536,-0.052,-0.0441,-0.0409,-0.0357,-0.03,-0.0247,-0.017,-0.0102,-0.0084,-0.0046,-0.0024,0.0018,0.0058,0.0097,0.0066,0.0128,0.0135,0.0071,0.0073,0.0074,0.0076,0,0,-0.073,-0.067,-0.0671,-0.0658,-0.0581,-0.0549,-0.053,-0.0474,-0.045,-0.0376,-0.034,-0.0281,-0.0224,-0.0187,-0.0126,-0.0084,-0.005,-0.0025,-0.002,0.0022,0.0091,0.013,0.0144,0.0003,0.0004,0.0005,0.0132,0,-0.0796,-0.0799,-0.0749,-0.075,-0.074,-0.0653,-0.0629,-0.0564,-0.05,-0.0439,-0.0361,-0.03,-0.0265,-0.0226,-0.0185,-0.007,-0.0033,-0.0089,0.0121,0.0126,0.016,0.0152,0.0196,0.0315,0.0141,0.0142,0.0143,0,-0.0864,-0.0849,-0.0866,-0.0812,-0.0799,-0.0787,-0.0717,-0.0685,-0.0587,-0.0528,-0.0462,-0.0376,-0.0308,-0.0267,-0.0116,-0.0145,-0.0054,0.0029,0.0037,0.0113,0.018,0.032,0.0336,0.0468,0.0156,0.0155,0.0154,0,-0.0949,-0.0931,-0.0944,-0.0925,-0.0852,-0.0848,-0.0812,-0.0722,-0.0677,-0.0586,-0.0529,-0.0427,-0.035,-0.0237,-0.0081,-0.0088,0.0102,0.0125,0.0242,0.0247,0.0342,0.0353,0.0504,0.0216,0.0216,0.0215,0.0215,0,-0.103,-0.1041,-0.0986,-0.0985,-0.0983,-0.0915,-0.0895,-0.0839,-0.0746,-0.0679,-0.0585,-0.0501,-0.0337,-0.0201,-0.0082,0.0109,0.0107,0.0226,0.0282,0.0308,0.0314,0.0481,0.0533,0.022,0.0219,0.0218,0.0217,0,-0.1122,-0.1093,-0.1093,-0.1038,-0.1022,-0.102,-0.0943,-0.091,-0.0827,-0.0739,-0.0706,-0.0536,-0.0352,-0.0186,0.003,0.0125,0.0387,0.0357,0.0368,0.0421,0.0633,0.0677,0.087,0.0958,0.0502,0.0504,0.0505,0,-0.1176,-0.1186,-0.1129,-0.1117,-0.11,-0.1078,-0.1043,-0.0959,-0.0909,-0.0747,-0.0698,-0.051,-0.0343,-0.0026,0.0185,0.041,0.0494,0.0557,0.0535,0.0648,0.0739,0.0756,0.0816,0.0628,0.063,0.0632,0.0634,0,-0.1261,-0.123,-0.1204,-0.117,-0.115,-0.1121,-0.1074,-0.1041,-0.092,-0.0819,-0.0644,-0.0504,-0.019,0.0108,0.038,0.0503,0.0664,0.0602,0.0734,0.0852,0.0869,0.098,0.0532,0.0651,0.0649,0.0648,0.0647,0.0646,-0.1309,-0.1289,-0.123,-0.1196,-0.1175,-0.1143,-0.1111,-0.102,-0.0916,-0.0676,-0.0584,-0.0248,0.0047,0.0455,0.0599,0.0893,0.0838,0.096,0.1006,0.1013,0.1089,0.0662,0.083,0.0829,0.0829,0.0828,0.0828,0,-0.1351,-0.1291,-0.1251,-0.1201,-0.1177,-0.1159,-0.1093,-0.1014,-0.0863,-0.054,-0.0314,0.0182,0.0505,0.0805,0.1143,0.129,0.1321,0.1346,0.1391,0.1437,0.1088,0.1083,0.1296,0.1296,0.1296,0.1296,0.1296,0.1296,-0.1353,-0.1309,-0.1246,-0.1189,-0.1163,-0.1109,-0.1065,-0.0918,-0.0677,-0.0168,0.0276,0.0575,0.0893,0.1322,0.1633,0.1654,0.1801,0.1765,0.1844,0.1608,0.1575,0.1544,0.1553,0.1861,0.1862,0.2185,0.2188,0.219]}],[{"header":{"parameterUnit":"m.s-1","parameterCategory":2,"la1":30.2991,"la2":30.254,"lo1":-89.0895,"lo2":-89.0444,"dy":0.0017,"dx":0.0017,"nx":28,"ny":28,"refTime":"2023-09-23T09:00:00:Z","depth":"2","parameterNumber":2,"parameterNumberName":"U-component_of_CURRENTS"},"data":[0,0,0,0,0,0,0,0,0,0,0,0,0,0,0,0,0,0,0,0,0,0,0,0,0,0,0,0,0,0,0,0,0,0,0,0,0,0,0,0,0,0,0,0,0,0,0,0,0,0,0,0,0,0,0,0,0,0,-0.1754,-0.1756,0,-0.1885,-0.1886,-0.1887,-0.1917,-0.1917,-0.1917,-0.1917,-0.1918,-0.1918,-0.1918,0,0,0,0,0,0,0,0,0,0,0,0,0,-0.169,-0.1689,-0.1754,-0.1756,-0.1759,-0.1885,-0.1886,-0.1887,-0.1917,-0.1917,-0.1917,-0.1917,-0.1918,-0.1918,-0.1918,0,0,0,0,0,0,0,0,0,0,0,0,0,-0.175,-0.1689,-0.1753,-0.1796,-0.1802,-0.1885,-0.1886,-0.1887,-0.1917,-0.1917,-0.1917,-0.1917,-0.1918,-0.1918,-0.1918,-0.192,0,0,-0.1918,-0.1918,0,0,0,0,0,0,0,0,-0.1746,-0.1751,-0.1787,-0.1793,-0.18,-0.1893,-0.1865,-0.1895,-0.1917,-0.1864,-0.1917,-0.1917,-0.1903,-0.1905,-0.1918,-0.192,-0.192,-0.1918,-0.1918,-0.1918,-0.1918,0,0,0,0,0,0,0,-0.1742,-0.1746,-0.1796,-0.179,-0.1798,-0.1865,-0.187,-0.1871,-0.1872,-0.1868,-0.1873,-0.1903,-0.1905,-0.1918,-0.1918,-0.192,-0.1918,-0.1918,-0.1918,-0.1918,-0.1957,-0.1958,0,0,0,0,0,0,-0.1736,-0.1741,-0.1792,-0.1801,-0.1783,-0.1866,-0.1872,-0.1855,-0.1876,-0.1883,-0.1903,-0.1904,-0.1918,-0.1918,-0.1918,-0.1957,-0.1918,-0.1918,-0.1918,-0.1956,-0.1957,-0.1958,0,0,0,0,0,0,-0.1733,-0.1737,-0.1787,-0.1785,-0.1797,-0.1867,-0.1848,-0.1858,-0.1878,-0.1905,-0.1907,-0.1914,-0.1918,-0.1918,-0.1948,-0.1956,-0.1918,-0.1918,-0.1955,-0.1956,-0.1958,-0.2011,0,0,0,0,0,0,-0.1729,-0.1734,-0.1753,-0.1782,-0.1797,-0.1833,-0.185,-0.1861,-0.1901,-0.1903,-0.1915,-0.1916,-0.1918,-0.1948,-0.1948,-0.1955,-0.1919,-0.1954,-0.1956,-0.1957,-0.2008,-0.2014,-0.2019,0,0,0,0,0,-0.1726,-0.1738,-0.1751,-0.1761,-0.1807,-0.1834,-0.1846,-0.1892,-0.1902,-0.1908,-0.1938,-0.1915,-0.1958,-0.195,-0.1949,-0.1956,-0.1953,-0.1955,-0.1957,-0.2005,-0.2013,-0.2019,0,0,0,0,0,0,-0.1729,-0.1744,-0.1759,-0.1778,-0.1806,-0.1842,-0.1882,-0.1893,-0.1923,-0.1938,-0.1938,-0.1941,-0.1961,-0.1956,-0.1946,-0.1973,-0.1947,-0.1949,-0.1984,-0.1991,-0.1996,-0.2018,-0.1919,0,0,0,0,0,-0.1738,-0.1741,-0.1768,-0.1787,-0.1803,-0.184,-0.187,-0.1891,-0.1917,-0.1931,-0.1945,-0.1961,-0.1969,-0.198,-0.1984,-0.2007,-0.1984,-0.2008,-0.2014,-0.2019,-0.2037,-0.2014,-0.2019,-0.1965,-0.1965,-0.1965,0,0,-0.1745,-0.1761,-0.1765,-0.179,-0.182,-0.1857,-0.1854,-0.1896,-0.1933,-0.1925,-0.1983,-0.1978,-0.1978,-0.2007,-0.2015,-0.2007,-0.2019,-0.2022,-0.2026,-0.2042,-0.2017,-0.2022,-0.2027,-0.1967,-0.1967,-0.1966,0,0,-0.1755,-0.1771,-0.1778,-0.1812,-0.1867,-0.1888,-0.1895,-0.1933,-0.1957,-0.2008,-0.2007,-0.2021,-0.2043,-0.205,-0.2052,-0.2091,-0.2043,-0.2078,-0.2134,-0.2111,-0.2115,-0.2119,-0.2081,-0.208,-0.2089,-0.2089,-0.2089,0,-0.1778,-0.1787,-0.179,-0.1826,-0.1874,-0.1895,-0.1931,-0.1963,-0.2011,-0.203,-0.2035,-0.2068,-0.2068,-0.2089,-0.2116,-0.2103,-0.2077,-0.2107,-0.2118,-0.2121,-0.2124,-0.2084,-0.2083,-0.2092,-0.2091,-0.2091,-0.2091,0,-0.1792,-0.183,-0.1844,-0.1887,-0.1924,-0.1968,-0.2009,-0.2043,-0.2074,-0.2101,-0.2131,-0.2141,-0.2154,-0.2152,-0.2158,-0.217,-0.214,-0.2119,-0.21,-0.2132,-0.2088,-0.2086,-0.2096,-0.2095,-0.2094,-0.2093,0,0,-0.1746,-0.1838,-0.184,-0.189,-0.1971,-0.199,-0.2057,-0.2104,-0.2132,-0.2181,-0.2205,-0.2242,-0.2231,-0.2234,-0.2218,-0.2223,-0.2219,-0.2195,-0.2192,-0.2156,-0.2157,-0.2077,-0.2067,-0.2196,-0.2197,-0.2197,-0.2112,0,-0.1763,-0.1841,-0.1873,-0.1955,-0.2009,-0.2062,-0.2113,-0.2162,-0.2195,-0.2223,-0.2238,-0.2249,-0.2263,-0.2254,-0.2268,-0.2221,-0.2219,-0.2243,-0.2133,-0.213,-0.2054,-0.2064,-0.1908,-0.1815,-0.211,-0.211,-0.2109,0,-0.1753,-0.182,-0.1906,-0.2006,-0.2026,-0.2069,-0.2139,-0.2187,-0.2234,-0.2255,-0.228,-0.2274,-0.229,-0.2284,-0.2257,-0.2268,-0.2232,-0.2202,-0.2197,-0.2109,-0.2047,-0.1833,-0.1799,-0.2105,-0.2106,-0.2106,-0.2106,0,-0.1721,-0.1825,-0.19,-0.1948,-0.2065,-0.2094,-0.2133,-0.2192,-0.2217,-0.2255,-0.226,-0.2282,-0.2266,-0.2251,-0.2215,-0.2228,-0.2163,-0.2155,-0.205,-0.2043,-0.1882,-0.186,-0.2136,-0.2136,-0.2136,-0.2136,-0.2137,0,-0.1735,-0.1788,-0.1891,-0.1948,-0.1997,-0.2079,-0.2115,-0.2155,-0.22,-0.2205,-0.2258,-0.2243,-0.226,-0.2226,-0.2204,-0.2115,-0.2145,-0.2063,-0.202,-0.1894,-0.1876,-0.2112,-0.2111,-0.2133,-0.2134,-0.2134,-0.2135,0,-0.169,-0.1783,-0.1855,-0.1966,-0.1993,-0.2016,-0.208,-0.2095,-0.2158,-0.2157,-0.2163,-0.22,-0.2152,-0.2147,-0.2094,-0.2069,-0.2005,-0.1964,-0.1813,-0.1755,-0.1903,-0.1906,-0.1837,-0.1834,-0.1831,-0.1828,-0.1826,0,-0.1665,-0.1711,-0.182,-0.1846,-0.1894,-0.1946,-0.1969,-0.2052,-0.2062,-0.211,-0.2088,-0.2073,-0.2024,-0.1938,-0.1876,-0.1797,-0.1893,-0.163,-0.1641,-0.191,-0.1875,-0.1882,-0.1888,-0.1437,-0.1432,-0.1428,-0.1425,0,-0.1595,-0.1638,-0.1705,-0.1755,-0.1788,-0.182,-0.1859,-0.187,-0.1949,-0.1954,-0.193,-0.1898,-0.182,-0.1671,-0.1598,-0.1541,-0.1637,-0.1543,-0.1839,-0.1549,-0.1529,-0.1497,-0.1516,-0.1388,-0.1392,-0.1395,-0.1397,-0.1398,-0.1492,-0.1514,-0.1591,-0.1625,-0.1662,-0.1667,-0.1642,-0.1692,-0.1691,-0.166,-0.172,-0.1615,-0.1594,-0.1381,-0.1307,-0.1254,-0.137,-0.1327,-0.1341,-0.1359,-0.134,-0.1317,-0.1132,-0.1134,-0.1136,-0.1137,-0.1139,0,-0.1338,-0.1406,-0.144,-0.1485,-0.1459,-0.1523,-0.1537,-0.1486,-0.1434,-0.1433,-0.139,-0.1218,-0.1116,-0.1103,-0.0957,-0.0942,-0.0949,-0.0915,-0.0928,-0.0963,-0.0995,-0.096,-0.0649,-0.0648,-0.0647,-0.0646,0,0,-0.1274,-0.1276,-0.132,-0.1263,-0.1279,-0.1193,-0.1168,-0.1123,-0.1096,-0.101,-0.0953,-0.101,-0.1036,-0.0837,-0.0799,-0.0699,-0.0823,-0.0657,-0.1042,-0.1089,-0.1119,-0.1215,-0.1198,0,0,0,0,0]},{"header":{"parameterUnit":"m.s-1","parameterCategory":2,"la1":30.2991,"la2":30.254,"lo1":-89.0895,"lo2":-89.0444,"dy":0.0017,"dx":0.0017,"nx":28,"ny":28,"refTime":"2023-09-23T09:00:00:Z","depth":"2","parameterNumber":3,"parameterNumberName":"V-component_of_CURRENTS"},"data":[0,0,0,0,0,0,0,0,0,0,0,0,0,0,0,0,0,0,0,0,0,0,0,0,0,0,0,0,0,0,0,0,0,0,0,0,0,0,0,0,0,0,0,0,0,0,0,0,0,0,0,0,0,0,0,0,0,0,-0.0303,-0.0302,0,-0.0222,-0.0221,-0.0221,-0.0168,-0.0167,-0.0167,-0.0167,-0.0049,-0.0046,-0.0044,0,0,0,0,0,0,0,0,0,0,0,0,0,-0.0334,-0.0335,-0.0303,-0.0302,-0.0301,-0.0223,-0.0221,-0.022,-0.0168,-0.0167,-0.0167,-0.0166,-0.005,-0.0047,-0.0043,0,0,0,0,0,0,0,0,0,0,0,0,0,-0.0294,-0.0335,-0.0303,-0.0265,-0.0261,-0.0223,-0.0221,-0.022,-0.0168,-0.0167,-0.0167,-0.0166,-0.0051,-0.0047,-0.0043,-0.0028,0,0,-0.003,-0.0028,0,0,0,0,0,0,0,0,-0.0297,-0.0293,-0.0272,-0.0268,-0.0263,-0.0204,-0.0189,-0.0154,-0.0168,-0.0203,-0.0167,-0.0166,-0.0098,-0.009,-0.0077,-0.0022,-0.0017,-0.003,-0.0027,-0.0025,-0.0024,0,0,0,0,0,0,0,-0.03,-0.0296,-0.0271,-0.0271,-0.0265,-0.0226,-0.022,-0.0182,-0.0154,-0.02,-0.0196,-0.0187,-0.0095,-0.0081,-0.0073,-0.0015,-0.003,-0.0026,-0.0024,-0.0022,0.0083,0.0083,0,0,0,0,0,0,-0.0314,-0.0299,-0.0274,-0.0269,-0.0279,-0.0226,-0.022,-0.0224,-0.0155,-0.0144,-0.0188,-0.0185,-0.0088,-0.0078,-0.0069,-0.0031,-0.0025,-0.0022,-0.0019,0.0083,0.0083,0.0083,0,0,0,0,0,0,-0.0316,-0.0313,-0.0277,-0.0281,-0.0274,-0.0227,-0.0231,-0.0222,-0.0206,-0.0146,-0.0134,-0.018,-0.0087,-0.0075,-0.0021,-0.0026,-0.002,-0.0016,0.0082,0.0083,0.0083,0.0036,0,0,0,0,0,0,-0.0317,-0.0315,-0.0318,-0.0283,-0.0274,-0.0259,-0.0231,-0.0221,-0.0201,-0.0197,-0.0136,-0.0124,-0.0086,-0.0028,-0.0017,-0.002,-0.0013,0.0082,0.0082,0.0083,0.0037,0.0035,0.0033,0,0,0,0,0,-0.0319,-0.0331,-0.0319,-0.0315,-0.0282,-0.0259,-0.0251,-0.0215,-0.0202,-0.0198,-0.0145,-0.0126,-0.0018,-0.0024,-0.0011,-0.0014,0.0082,0.0082,0.0083,0.0038,0.0035,0.0033,0,0,0,0,0,0,-0.0351,-0.0326,-0.0312,-0.0318,-0.0291,-0.025,-0.0241,-0.022,-0.0177,-0.0169,-0.0114,-0.0099,-0.0057,-0.0026,-0.0035,0.0018,0.0031,0.0034,-0.0007,-0.0009,-0.0011,-0.0025,-0.0009,0,0,0,0,0,-0.036,-0.0362,-0.0329,-0.0334,-0.0322,-0.0283,-0.0268,-0.0245,-0.0204,-0.0185,-0.0141,-0.0091,-0.0046,-0.002,0.0022,0.0055,0.0086,0.006,0.0057,0.0055,0.0053,0.0099,0.01,0.0085,0.0085,0.0085,0,0,-0.0375,-0.036,-0.0362,-0.034,-0.0316,-0.0303,-0.0273,-0.0255,-0.024,-0.0179,-0.0142,-0.0097,-0.0039,0.0001,0.0021,0.0027,0.0077,0.0056,0.0053,0.0052,0.01,0.0101,0.0102,0.0086,0.0085,0.0085,0,0,-0.0405,-0.0393,-0.0401,-0.038,-0.0348,-0.0321,-0.032,-0.0279,-0.0254,-0.0214,-0.0166,-0.0118,-0.0056,-0.0011,0.0019,0.003,0.0062,0.0035,0.0014,0.0059,0.006,0.0062,0.0104,0.011,0.0034,0.0034,0.0033,0,-0.0422,-0.043,-0.0399,-0.0395,-0.038,-0.0334,-0.0334,-0.0303,-0.0248,-0.0226,-0.0209,-0.0108,-0.0061,-0.0006,-0.0,0.0023,0.0052,0.0018,0.0055,0.0057,0.006,0.0102,0.0109,0.0031,0.0032,0.0032,0.0032,0,-0.0449,-0.0453,-0.0456,-0.0436,-0.0415,-0.041,-0.0362,-0.0338,-0.0304,-0.0268,-0.021,-0.0139,-0.0082,-0.0061,-0.0024,0.0015,0.0031,0.0045,0.0058,0.0058,0.0103,0.0111,0.0028,0.0029,0.003,0.003,0,0,-0.0493,-0.0481,-0.048,-0.0481,-0.0438,-0.0426,-0.0398,-0.0359,-0.0341,-0.0281,-0.025,-0.0169,-0.0134,-0.0098,-0.0048,-0.0004,0.0042,0.0022,0.0025,0.0056,0.0138,0.0163,0.0174,0.0059,0.006,0.0061,0.0163,0,-0.0524,-0.0542,-0.0515,-0.0522,-0.0527,-0.0473,-0.045,-0.0404,-0.0358,-0.0314,-0.0237,-0.0188,-0.0148,-0.012,-0.0071,0.0017,0.0061,0.0013,0.014,0.0144,0.0159,0.0184,0.0165,0.0255,0.0171,0.0172,0.0173,0,-0.0554,-0.0564,-0.0589,-0.0572,-0.0565,-0.0558,-0.0513,-0.0485,-0.0409,-0.037,-0.0308,-0.0246,-0.0164,-0.0136,0.0004,-0.003,0.0045,0.0111,0.0117,0.0161,0.0184,0.0243,0.0273,0.0187,0.0186,0.0185,0.0184,0,-0.0607,-0.0608,-0.0636,-0.0631,-0.0606,-0.06,-0.0575,-0.051,-0.0482,-0.0409,-0.0379,-0.0278,-0.0217,-0.0117,0.0022,0.0012,0.0176,0.0181,0.0275,0.0278,0.0299,0.0301,0.0273,0.0273,0.0272,0.0272,0.0272,0,-0.0656,-0.0675,-0.0669,-0.0688,-0.0704,-0.0658,-0.0655,-0.0612,-0.0546,-0.0506,-0.042,-0.0358,-0.0209,-0.0094,0.0015,0.0176,0.0173,0.028,0.0309,0.0282,0.0282,0.025,0.0246,0.0276,0.0275,0.0274,0.0274,0,-0.072,-0.0721,-0.075,-0.074,-0.0739,-0.075,-0.0713,-0.0699,-0.0635,-0.0578,-0.0554,-0.0407,-0.025,-0.0099,0.0089,0.0176,0.0319,0.0374,0.0332,0.0355,0.039,0.0382,0.0486,0.0488,0.0489,0.0491,0.0492,0,-0.0753,-0.078,-0.0797,-0.0817,-0.0821,-0.0827,-0.0823,-0.0758,-0.0727,-0.0596,-0.0562,-0.0401,-0.0262,0.0012,0.0196,0.0392,0.038,0.0472,0.0451,0.0395,0.0414,0.0404,0.0394,0.0464,0.0464,0.0465,0.0465,0,-0.0809,-0.0819,-0.0848,-0.0891,-0.0907,-0.091,-0.089,-0.0873,-0.0774,-0.0695,-0.0544,-0.0423,-0.0154,0.0079,0.0316,0.0417,0.0436,0.0491,0.046,0.0406,0.0381,0.0396,0.0387,0.0471,0.047,0.047,0.047,0.0469,-0.0838,-0.0878,-0.0915,-0.0954,-0.097,-0.0966,-0.0955,-0.0896,-0.0819,-0.0658,-0.0537,-0.0321,-0.0117,0.0243,0.0401,0.053,0.0525,0.0549,0.0545,0.054,0.0512,0.0491,0.0597,0.0597,0.0597,0.0597,0.0597,0,-0.0859,-0.0914,-0.0962,-0.1003,-0.1019,-0.1011,-0.0972,-0.0917,-0.0804,-0.0646,-0.0469,-0.0198,0.0059,0.0253,0.048,0.061,0.0583,0.061,0.0555,0.0549,0.0544,0.0513,0.06,0.06,0.0601,0.0601,0,0,-0.0874,-0.0943,-0.0978,-0.1028,-0.1045,-0.1029,-0.0995,-0.0883,-0.0757,-0.0562,-0.039,-0.0173,0.007,0.0235,0.0395,0.0504,0.0479,0.05,0.0483,0.0391,0.0384,0.0497,0.0443,0,0,0,0,0]}],[{"header":{"parameterUnit":"m.s-1","parameterCategory":2,"la1":30.2991,"la2":30.254,"lo1":-89.0895,"lo2":-89.0444,"dy":0.0017,"dx":0.0017,"nx":28,"ny":28,"refTime":"2023-09-23T09:00:00:Z","depth":"4","parameterNumber":2,"parameterNumberName":"U-component_of_CURRENTS"},"data":[0,0,0,0,0,0,0,0,0,0,0,0,0,0,0,0,0,0,0,0,0,0,0,0,0,0,0,0,0,0,0,0,0,0,0,0,0,0,0,0,0,0,0,0,0,0,0,0,0,0,0,0,0,0,0,0,0,0,-0.1146,-0.1146,0,-0.1208,-0.1209,-0.1209,-0.1252,-0.1253,-0.1253,-0.1253,-0.1297,-0.1297,-0.1298,0,0,0,0,0,0,0,0,0,0,0,0,0,-0.1088,-0.1089,-0.1146,-0.1146,-0.1147,-0.1208,-0.1209,-0.1209,-0.1252,-0.1253,-0.1253,-0.1254,-0.1296,-0.1297,-0.1298,0,0,0,0,0,0,0,0,0,0,0,0,0,-0.1127,-0.1089,-0.1145,-0.1177,-0.118,-0.1208,-0.1209,-0.121,-0.1252,-0.1253,-0.1253,-0.1254,-0.1296,-0.1297,-0.1298,-0.1294,0,0,-0.1302,-0.1303,0,0,0,0,0,0,0,0,-0.1125,-0.1129,-0.1171,-0.1174,-0.1178,-0.1224,-0.1205,-0.1237,-0.1252,-0.1224,-0.1253,-0.1254,-0.1271,-0.1274,-0.1283,-0.1296,-0.1298,-0.1302,-0.1303,-0.1303,-0.1304,0,0,0,0,0,0,0,-0.1122,-0.1127,-0.1169,-0.1172,-0.1176,-0.1196,-0.1202,-0.1211,-0.1242,-0.1226,-0.123,-0.1238,-0.1272,-0.1282,-0.1285,-0.1298,-0.1302,-0.1303,-0.1304,-0.1304,-0.1372,-0.1373,0,0,0,0,0,0,-0.1114,-0.1124,-0.1167,-0.1171,-0.1154,-0.1196,-0.1203,-0.1208,-0.1243,-0.1249,-0.1237,-0.124,-0.128,-0.1283,-0.1286,-0.1355,-0.1303,-0.1304,-0.1305,-0.1371,-0.1372,-0.1374,0,0,0,0,0,0,-0.1113,-0.1117,-0.1165,-0.115,-0.1158,-0.1197,-0.1202,-0.1209,-0.1242,-0.1251,-0.1257,-0.1266,-0.1281,-0.1285,-0.1317,-0.1354,-0.1305,-0.1306,-0.137,-0.1371,-0.1373,-0.1445,0,0,0,0,0,0,-0.1111,-0.1116,-0.1126,-0.1149,-0.1158,-0.1197,-0.1202,-0.121,-0.1245,-0.1249,-0.1277,-0.1281,-0.1281,-0.1315,-0.1318,-0.1355,-0.1307,-0.1368,-0.137,-0.1372,-0.1442,-0.1449,-0.1456,0,0,0,0,0,-0.1108,-0.1116,-0.1126,-0.1132,-0.1167,-0.1198,-0.1205,-0.1233,-0.1246,-0.1265,-0.1285,-0.1281,-0.133,-0.1317,-0.132,-0.1358,-0.1367,-0.137,-0.1372,-0.1438,-0.1448,-0.1456,0,0,0,0,0,0,-0.1095,-0.1122,-0.1134,-0.1149,-0.1179,-0.1206,-0.1226,-0.1246,-0.1277,-0.1288,-0.1294,-0.1299,-0.1343,-0.1335,-0.132,-0.1382,-0.1348,-0.1352,-0.1398,-0.1406,-0.1413,-0.1427,-0.1308,0,0,0,0,0,-0.1096,-0.1113,-0.114,-0.1157,-0.117,-0.1202,-0.1222,-0.1246,-0.1272,-0.1289,-0.1308,-0.1327,-0.1351,-0.1367,-0.1381,-0.1413,-0.1398,-0.1438,-0.1445,-0.1451,-0.1464,-0.1484,-0.1495,-0.1382,-0.1382,-0.1382,0,0,-0.1097,-0.1114,-0.1124,-0.1156,-0.118,-0.1216,-0.1216,-0.1255,-0.1298,-0.1286,-0.1347,-0.1355,-0.1365,-0.1406,-0.1424,-0.1408,-0.1469,-0.1454,-0.146,-0.1469,-0.1488,-0.1499,-0.1509,-0.1383,-0.1383,-0.1383,0,0,-0.1107,-0.1121,-0.1141,-0.1171,-0.1214,-0.1237,-0.1253,-0.1295,-0.1326,-0.1377,-0.1383,-0.1416,-0.1447,-0.1467,-0.1479,-0.1532,-0.1507,-0.1534,-0.1585,-0.1605,-0.1615,-0.1623,-0.1593,-0.1598,-0.1538,-0.1538,-0.1538,0,-0.1107,-0.1139,-0.1153,-0.1187,-0.1221,-0.125,-0.1293,-0.1328,-0.138,-0.141,-0.1407,-0.1476,-0.1481,-0.154,-0.1559,-0.1552,-0.1539,-0.1554,-0.1616,-0.1624,-0.1632,-0.1598,-0.1603,-0.1542,-0.1541,-0.1541,-0.154,0,-0.1129,-0.1172,-0.1188,-0.1242,-0.1279,-0.1321,-0.1369,-0.1412,-0.1451,-0.1485,-0.1555,-0.1567,-0.1606,-0.1615,-0.1606,-0.1666,-0.1629,-0.1623,-0.1596,-0.1648,-0.1608,-0.1612,-0.1547,-0.1546,-0.1544,-0.1544,0,0,-0.1093,-0.1186,-0.1197,-0.1245,-0.1317,-0.135,-0.1422,-0.1492,-0.1543,-0.1595,-0.1656,-0.1706,-0.1712,-0.1725,-0.1721,-0.1741,-0.177,-0.1708,-0.1707,-0.1681,-0.178,-0.1641,-0.163,-0.1778,-0.178,-0.1781,-0.1722,0,-0.1113,-0.1192,-0.1235,-0.1326,-0.1375,-0.1431,-0.1497,-0.1566,-0.1615,-0.1674,-0.1712,-0.1762,-0.1755,-0.1772,-0.1799,-0.1775,-0.1788,-0.1784,-0.1732,-0.173,-0.1603,-0.1634,-0.1787,-0.1724,-0.1725,-0.1726,-0.1726,0,-0.112,-0.1181,-0.1272,-0.1388,-0.1412,-0.147,-0.1574,-0.1637,-0.1721,-0.1758,-0.1817,-0.1832,-0.1876,-0.1856,-0.1869,-0.1866,-0.1836,-0.1815,-0.1812,-0.1664,-0.1599,-0.1668,-0.1733,-0.1732,-0.1732,-0.1731,-0.1731,0,-0.1091,-0.1207,-0.1287,-0.1325,-0.1452,-0.1507,-0.1572,-0.1665,-0.1718,-0.1804,-0.1833,-0.1896,-0.1907,-0.1915,-0.1867,-0.1875,-0.1851,-0.1851,-0.1699,-0.1687,-0.1799,-0.1791,-0.187,-0.187,-0.187,-0.187,-0.187,0,-0.109,-0.1154,-0.1284,-0.1328,-0.1424,-0.1511,-0.1604,-0.1672,-0.1759,-0.1797,-0.1871,-0.1879,-0.1925,-0.1908,-0.1881,-0.178,-0.1861,-0.1708,-0.1673,-0.1824,-0.182,-0.1799,-0.1792,-0.1868,-0.1868,-0.1869,-0.1869,0,-0.104,-0.113,-0.1225,-0.1367,-0.1415,-0.148,-0.1608,-0.1657,-0.1751,-0.1794,-0.1818,-0.1869,-0.1831,-0.184,-0.1816,-0.1762,-0.1702,-0.1649,-0.1776,-0.1748,-0.152,-0.1518,-0.1481,-0.1475,-0.1471,-0.1467,-0.1464,0,-0.1012,-0.1065,-0.1227,-0.1283,-0.135,-0.1458,-0.152,-0.164,-0.1674,-0.1752,-0.1746,-0.1751,-0.1759,-0.1608,-0.164,-0.1575,-0.1561,-0.1526,-0.1567,-0.1517,-0.1486,-0.1491,-0.1493,-0.1457,-0.1456,-0.1455,-0.1454,0,-0.0956,-0.1029,-0.1107,-0.1227,-0.1309,-0.1385,-0.1472,-0.149,-0.1592,-0.1684,-0.1622,-0.1588,-0.1533,-0.1498,-0.1452,-0.1414,-0.1554,-0.1481,-0.149,-0.1528,-0.1488,-0.1463,-0.1471,-0.1439,-0.1441,-0.1442,-0.1443,0,-0.0896,-0.0941,-0.1055,-0.1149,-0.1243,-0.1275,-0.1343,-0.1366,-0.1414,-0.15,-0.1458,-0.1458,-0.1495,-0.141,-0.1365,-0.1317,-0.1309,-0.1287,-0.1307,-0.1324,-0.1302,-0.123,-0.107,0,0,0,0,0,-0.0817,-0.0874,-0.0965,-0.1059,-0.1141,-0.1185,-0.1291,-0.1351,-0.1442,-0.1357,-0.1408,-0.1344,-0.1269,-0.1274,-0.1188,-0.13,-0.1322,-0.1198,-0.1311,-0.1354,-0.1372,-0.1362,0,0,0,0,0,0,-0.0772,-0.0854,-0.0931,-0.0955,-0.0985,-0.105,-0.1103,-0.1168,-0.1138,-0.1227,-0.1189,-0.1252,-0.1199,-0.1274,-0.1149,-0.1152,-0.1196,-0.1212,-0.1209,-0.1344,-0.136,-0.1374,-0.137,0,0,0,0,0]},{"header":{"parameterUnit":"m.s-1","parameterCategory":2,"la1":30.2991,"la2":30.254,"lo1":-89.0895,"lo2":-89.0444,"dy":0.0017,"dx":0.0017,"nx":28,"ny":28,"refTime":"2023-09-23T09:00:00:Z","depth":"4","parameterNumber":3,"parameterNumberName":"V-component_of_CURRENTS"},"data":[0,0,0,0,0,0,0,0,0,0,0,0,0,0,0,0,0,0,0,0,0,0,0,0,0,0,0,0,0,0,0,0,0,0,0,0,0,0,0,0,0,0,0,0,0,0,0,0,0,0,0,0,0,0,0,0,0,0,-0.0222,-0.0221,0,-0.0184,-0.0184,-0.0184,-0.0156,-0.0156,-0.0155,-0.0155,-0.0098,-0.0097,-0.0096,0,0,0,0,0,0,0,0,0,0,0,0,0,-0.0215,-0.0216,-0.0222,-0.0221,-0.0221,-0.0184,-0.0184,-0.0183,-0.0156,-0.0156,-0.0155,-0.0155,-0.0099,-0.0097,-0.0096,0,0,0,0,0,0,0,0,0,0,0,0,0,-0.0203,-0.0216,-0.0222,-0.0202,-0.02,-0.0184,-0.0184,-0.0183,-0.0156,-0.0156,-0.0155,-0.0155,-0.0099,-0.0097,-0.0095,-0.0093,0,0,-0.009,-0.0089,0,0,0,0,0,0,0,0,-0.0204,-0.0204,-0.0205,-0.0203,-0.0201,-0.0174,-0.0161,-0.0152,-0.0156,-0.0174,-0.0155,-0.0155,-0.0121,-0.0118,-0.0113,-0.0091,-0.0088,-0.009,-0.0089,-0.0088,-0.0087,0,0,0,0,0,0,0,-0.0205,-0.0205,-0.0208,-0.0205,-0.0202,-0.0176,-0.0175,-0.0159,-0.0151,-0.0172,-0.017,-0.0164,-0.012,-0.0115,-0.0112,-0.0088,-0.009,-0.0088,-0.0087,-0.0086,-0.0046,-0.0046,0,0,0,0,0,0,-0.0211,-0.0206,-0.0209,-0.0207,-0.02,-0.0177,-0.0175,-0.0184,-0.0151,-0.0146,-0.0165,-0.0163,-0.0118,-0.0114,-0.0109,-0.0086,-0.0088,-0.0086,-0.0085,-0.0046,-0.0046,-0.0046,0,0,0,0,0,0,-0.0212,-0.0213,-0.021,-0.0204,-0.0201,-0.0178,-0.0187,-0.0183,-0.0178,-0.0146,-0.014,-0.0165,-0.0118,-0.0112,-0.0094,-0.0084,-0.0085,-0.0084,-0.0046,-0.0046,-0.0046,-0.005,0,0,0,0,0,0,-0.0212,-0.0213,-0.0221,-0.0205,-0.0202,-0.0206,-0.0187,-0.0183,-0.0175,-0.0173,-0.0144,-0.0138,-0.0117,-0.0097,-0.0092,-0.0081,-0.0082,-0.0046,-0.0046,-0.0046,-0.005,-0.005,-0.0051,0,0,0,0,0,-0.0212,-0.0227,-0.0222,-0.0222,-0.0214,-0.0206,-0.0203,-0.0184,-0.0176,-0.0178,-0.0154,-0.0139,-0.0093,-0.0095,-0.009,-0.0078,-0.0046,-0.0046,-0.0046,-0.005,-0.005,-0.0051,0,0,0,0,0,0,-0.0229,-0.0225,-0.0219,-0.0233,-0.0222,-0.0202,-0.0201,-0.0189,-0.0173,-0.017,-0.014,-0.0132,-0.0111,-0.01,-0.0103,-0.0068,-0.0067,-0.0066,-0.0072,-0.0072,-0.0073,-0.007,-0.0081,0,0,0,0,0,-0.0237,-0.0248,-0.0235,-0.0246,-0.0242,-0.0223,-0.0217,-0.0206,-0.0188,-0.0181,-0.016,-0.0136,-0.0108,-0.0095,-0.0075,-0.0059,-0.0036,-0.0049,-0.0049,-0.005,-0.0045,0.0001,0.0005,-0.0046,-0.0046,-0.0046,0,0,-0.0247,-0.0245,-0.0252,-0.0249,-0.0239,-0.0236,-0.0218,-0.0215,-0.0205,-0.0177,-0.0162,-0.0138,-0.0105,-0.0082,-0.0071,-0.007,-0.0025,-0.005,-0.005,-0.0045,0.0001,0.0006,0.0011,-0.0046,-0.0046,-0.0046,0,0,-0.0268,-0.0271,-0.0284,-0.0276,-0.0264,-0.0251,-0.0252,-0.0236,-0.0221,-0.0206,-0.0176,-0.0144,-0.0119,-0.0081,-0.006,-0.0052,-0.0029,-0.0054,-0.0051,-0.0007,-0.0002,0.0003,0.0032,0.004,-0.0053,-0.0053,-0.0053,0,-0.0278,-0.0295,-0.0285,-0.0289,-0.0282,-0.0259,-0.0263,-0.0246,-0.0224,-0.0207,-0.0204,-0.014,-0.0112,-0.0061,-0.0055,-0.0049,-0.0031,-0.005,-0.0005,-0.0,0.0005,0.0034,0.0042,-0.0054,-0.0054,-0.0054,-0.0054,0,-0.0302,-0.0314,-0.032,-0.0318,-0.0308,-0.031,-0.0282,-0.0271,-0.0252,-0.0228,-0.0184,-0.0141,-0.0102,-0.0085,-0.0064,-0.0015,-0.0016,-0.0011,-0.0002,0.001,0.0039,0.0048,-0.0054,-0.0054,-0.0054,-0.0054,0,0,-0.0328,-0.0337,-0.034,-0.0343,-0.0324,-0.0321,-0.03,-0.0272,-0.0256,-0.0222,-0.0192,-0.0129,-0.0105,-0.008,-0.0047,-0.0002,0.0052,0.0004,0.0007,0.0037,0.0137,0.0115,0.0123,0.0062,0.0064,0.0065,0.0141,0,-0.0349,-0.0372,-0.0362,-0.0373,-0.038,-0.0348,-0.0331,-0.0299,-0.0266,-0.0234,-0.0168,-0.0133,-0.0103,-0.0085,-0.0032,0.0028,0.0075,0.003,0.0118,0.012,0.0103,0.0133,0.007,0.0148,0.015,0.0151,0.0152,0,-0.0373,-0.0385,-0.0408,-0.0404,-0.0402,-0.0402,-0.0368,-0.035,-0.0288,-0.0261,-0.0205,-0.016,-0.0084,-0.0068,0.0054,0.0019,0.0078,0.0128,0.0132,0.0121,0.0115,0.0135,0.0168,0.0167,0.0166,0.0165,0.0164,0,-0.0401,-0.0415,-0.0437,-0.0436,-0.0427,-0.0425,-0.0413,-0.0364,-0.0344,-0.0282,-0.026,-0.0167,-0.0122,-0.0033,0.007,0.0061,0.0198,0.0198,0.0238,0.0237,0.0235,0.0229,0.029,0.029,0.029,0.0289,0.0289,0,-0.0427,-0.0445,-0.0459,-0.0472,-0.0492,-0.0464,-0.0466,-0.0437,-0.0388,-0.0358,-0.0285,-0.0235,-0.0111,-0.0018,0.0069,0.0179,0.02,0.0249,0.0262,0.0229,0.0222,0.0241,0.0234,0.0292,0.0292,0.0291,0.0291,0,-0.0457,-0.0469,-0.0498,-0.0505,-0.0514,-0.0528,-0.0519,-0.051,-0.0461,-0.0419,-0.04,-0.0281,-0.0159,-0.0037,0.0117,0.0173,0.028,0.0316,0.0267,0.0274,0.0288,0.028,0.0365,0.0365,0.0365,0.0365,0.0365,0,-0.0472,-0.0496,-0.0536,-0.0563,-0.0576,-0.0593,-0.0602,-0.056,-0.0536,-0.0438,-0.0412,-0.0289,-0.0201,0.0004,0.0122,0.0281,0.0303,0.0345,0.0327,0.0295,0.03,0.0292,0.0284,0.0365,0.0365,0.0365,0.0365,0,-0.0499,-0.0523,-0.055,-0.0617,-0.0647,-0.0661,-0.0661,-0.0645,-0.0573,-0.0535,-0.0401,-0.0283,-0.0144,0.0012,0.0133,0.0248,0.0308,0.0346,0.0346,0.033,0.0296,0.0299,0.0291,0.0365,0.0365,0.0365,0.0365,0,-0.0515,-0.0552,-0.0605,-0.0659,-0.07,-0.0707,-0.0701,-0.0645,-0.0607,-0.0481,-0.0437,-0.0274,-0.0169,-0.0004,0.011,0.0214,0.0236,0.0256,0.0262,0.0263,0.0205,0.0146,0.019,0,0,0,0,0,-0.0518,-0.0575,-0.0639,-0.0692,-0.0731,-0.0748,-0.0726,-0.07,-0.0629,-0.0537,-0.0477,-0.0338,-0.014,-0.0048,0.0055,0.0084,0.0229,0.0203,0.0248,0.0365,0.0365,0.0312,0,0,0,0,0,0,-0.0522,-0.0594,-0.0646,-0.0708,-0.0744,-0.0771,-0.0753,-0.0703,-0.063,-0.0545,-0.0431,-0.0344,-0.0151,-0.0205,0.0045,0.0078,0.0114,0.0305,0.0306,0.0365,0.0365,0.0365,0.031,0,0,0,0,0]}]]